Simultaneous Nadir Overpasses (SNOs) Predictions

Prediction of SNOs between GOES-15 and NPP Satellite Orbit:

Table of predicted SNOs for the next 14.0 days since TLE Epoch: 12/19/2015
Index Date Time (GOES-15) GOES-15 Lat,Lon NPP Lat,Lon Distance(km) Time Diff (sec)
1 12/19/2015 22:42:32 0.07,-135.06 -0.82,-139.05 454.71 80
2 12/20/2015 22:26:26 0.06,-135.03 0.18,-134.52 58.43 80
3 12/23/2015 10:29:02 -0.07,-134.96 -0.02,-135.26 33.27 54
4 12/24/2015 10:10:42 -0.05,-134.92 -0.97,-130.71 479.14 80
5 12/25/2015 22:29:57 0.07,-134.83 -0.20,-136.02 135.16 80
6 12/26/2015 22:13:52 0.06,-134.80 0.81,-131.49 377.24 80
7 12/28/2015 10:32:59 -0.07,-134.76 0.35,-136.76 227.47 80
8 12/29/2015 10:16:52 -0.06,-134.72 -0.60,-132.22 284.44 80
9 12/30/2015 22:36:08 0.08,-134.62 -0.56,-137.52 331.08 80
10 12/31/2015 22:20:02 0.07,-134.57 0.45,-132.99 180.94 80




NCC Satellite Simultaneous Nadir Overpasses (SNOs) Prediction Service
